When you browse on this site, cookies collect data to enhance your experience and personalize the content and advertising you see.
Visit our Privacy Policy to learn more. By continuing to use the site, you agree to this use of cookies and data.
  • In Czech Republic
  • List of Countries
  • For 7 days
  • Water Temperature
  • Satellite Maps
  • Weather Map
  • Weather Widgets
  • user-avatar
    Login

    Hourly Weather Metairie

    Today, 20 July, Saturday

    Time Temperature Precipitation Wind Pressure Humidity
    00:00 +28°C° 0 mm 2 mps 762 mmHg 82%
    01:00 +28°C° 0 mm 1 mps 762 mmHg 82%
    02:00 +28°C° 0 mm 1 mps 761 mmHg 82%
    03:00 +27°C° 0 mm 1 mps 761 mmHg 83%
    04:00 +28°C° 0 mm 1 mps 761 mmHg 82%
    05:00 +28°C° 0 mm 1 mps 762 mmHg 82%
    06:00 +28°C° 0 mm 1 mps 762 mmHg 82%
    07:00 +29°C° 0.1 mm 1 mps 762 mmHg 76%
    08:00 +29°C° 0.1 mm 0 mps 762 mmHg 70%
    09:00 +30°C° 0.1 mm 0 mps 762 mmHg 64%
    10:00 +33°C° 0.2 mm 1 mps 762 mmHg 60%
    11:00 +34°C° 0.2 mm 1 mps 762 mmHg 55%
    12:00 +36°C° 0.2 mm 2 mps 763 mmHg 50%
    13:00 +35°C° 1.3 mm 2 mps 762 mmHg 57%
    14:00 +34°C° 1.3 mm 3 mps 762 mmHg 64%
    15:00 +31°C° 1.3 mm 3 mps 761 mmHg 70%
    16:00 +31°C° 1 mm 3 mps 761 mmHg 72%
    17:00 +30°C° 1 mm 2 mps 761 mmHg 74%
    18:00 +29°C° 1 mm 2 mps 761 mmHg 77%
    19:00 +29°C° 0 mm 2 mps 761 mmHg 78%
    20:00 +29°C° 0 mm 2 mps 761 mmHg 79%
    21:00 +28°C° 0 mm 2 mps 761 mmHg 80%
    22:00 +28°C° 0 mm 2 mps 761 mmHg 81%
    23:00 +28°C° 0 mm 2 mps 761 mmHg 81%

    Tomorrow, 21 July, Sunday

    Time Temperature Precipitation Wind Pressure Humidity
    00:00 +28°C° 0 mm 2 mps 761 mmHg 81%
    01:00 +28°C° 0.3 mm 2 mps 761 mmHg 82%
    02:00 +28°C° 0.3 mm 2 mps 761 mmHg 82%
    03:00 +28°C° 0.3 mm 2 mps 761 mmHg 82%
    04:00 +28°C° 0.1 mm 1 mps 761 mmHg 82%
    05:00 +28°C° 0.1 mm 1 mps 761 mmHg 82%
    06:00 +28°C° 0.1 mm 1 mps 762 mmHg 82%
    07:00 +28°C° 1.8 mm 1 mps 762 mmHg 82%
    08:00 +28°C° 1.8 mm 2 mps 762 mmHg 82%
    09:00 +28°C° 1.8 mm 3 mps 762 mmHg 82%
    10:00 +29°C° 0.2 mm 3 mps 762 mmHg 79%
    11:00 +29°C° 0.2 mm 2 mps 762 mmHg 75%
    12:00 +30°C° 0.2 mm 2 mps 762 mmHg 72%
    13:00 +31°C° 0 mm 2 mps 762 mmHg 67%
    14:00 +32°C° 0 mm 1 mps 762 mmHg 61%
    15:00 +34°C° 0 mm 1 mps 761 mmHg 56%
    16:00 +33°C° 0.2 mm 1 mps 761 mmHg 60%
    17:00 +32°C° 0.2 mm 1 mps 761 mmHg 63%
    18:00 +31°C° 0.2 mm 2 mps 761 mmHg 66%
    19:00 +30°C° 0 mm 1 mps 761 mmHg 69%
    20:00 +29°C° 0 mm 1 mps 762 mmHg 72%
    21:00 +28°C° 0 mm 1 mps 762 mmHg 74%
    22:00 +28°C° 0 mm 1 mps 761 mmHg 75%
    23:00 +28°C° 0 mm 2 mps 761 mmHg 75%

    Day after tomorrow, 22 July, Monday

    Time Temperature Precipitation Wind Pressure Humidity
    00:00 +27°C° 0 mm 2 mps 761 mmHg 75%
    01:00 +27°C° 0 mm 2 mps 761 mmHg 76%
    02:00 +27°C° 0 mm 2 mps 761 mmHg 78%
    03:00 +27°C° 0 mm 2 mps 761 mmHg 79%
    04:00 +27°C° 0 mm 1 mps 761 mmHg 80%
    05:00 +27°C° 0 mm 1 mps 762 mmHg 80%
    06:00 +27°C° 0 mm 1 mps 762 mmHg 81%
    07:00 +29°C° 0 mm 1 mps 762 mmHg 75%
    08:00 +30°C° 0 mm 1 mps 762 mmHg 70%
    09:00 +31°C° 0 mm 1 mps 763 mmHg 64%
    10:00 +33°C° 0 mm 1 mps 762 mmHg 58%
    11:00 +34°C° 0 mm 1 mps 762 mmHg 53%
    12:00 +35°C° 0 mm 1 mps 762 mmHg 47%
    13:00 +35°C° 0.1 mm 1 mps 761 mmHg 50%
    14:00 +35°C° 0.1 mm 2 mps 761 mmHg 53%
    15:00 +35°C° 0.1 mm 2 mps 760 mmHg 55%
    16:00 +34°C° 1 mm 2 mps 760 mmHg 61%
    17:00 +32°C° 1 mm 2 mps 760 mmHg 67%
    18:00 +31°C° 1 mm 2 mps 760 mmHg 72%
    19:00 +30°C° 0 mm 2 mps 760 mmHg 75%
    20:00 +29°C° 0 mm 3 mps 761 mmHg 79%
    21:00 +29°C° 0 mm 3 mps 761 mmHg 82%
    22:00 +28°C° 0.1 mm 3 mps 761 mmHg 83%
    23:00 +28°C° 0.1 mm 3 mps 761 mmHg 83%

    23 July, Tuesday

    Time Temperature Precipitation Wind Pressure Humidity
    00:00 +28°C° 0.1 mm 3 mps 761 mmHg 84%
    01:00 +27°C° 0.7 mm 3 mps 761 mmHg 84%
    02:00 +27°C° 0.7 mm 3 mps 760 mmHg 84%
    03:00 +27°C° 0.7 mm 3 mps 760 mmHg 84%
    04:00 +27°C° 0.1 mm 3 mps 760 mmHg 85%
    05:00 +27°C° 0.1 mm 2 mps 760 mmHg 86%
    06:00 +27°C° 0.1 mm 2 mps 760 mmHg 87%
    07:00 +28°C° 1.9 mm 3 mps 761 mmHg 82%
    08:00 +29°C° 1.9 mm 3 mps 761 mmHg 77%
    09:00 +32°C° 1.9 mm 4 mps 761 mmHg 73%
    10:00 +32°C° 1.7 mm 4 mps 761 mmHg 69%
    11:00 +33°C° 1.7 mm 4 mps 761 mmHg 65%
    12:00 +34°C° 1.7 mm 4 mps 761 mmHg 61%
    13:00 +33°C° 0.8 mm 4 mps 760 mmHg 65%
    14:00 +32°C° 0.8 mm 4 mps 760 mmHg 69%
    15:00 +30°C° 0.8 mm 4 mps 760 mmHg 73%
    16:00 +29°C° 0 mm 3 mps 760 mmHg 75%
    17:00 +29°C° 0 mm 3 mps 760 mmHg 77%
    18:00 +29°C° 0 mm 2 mps 760 mmHg 79%
    19:00 +28°C° 0 mm 2 mps 760 mmHg 80%
    20:00 +28°C° 0 mm 2 mps 760 mmHg 81%
    21:00 +27°C° 0 mm 2 mps 760 mmHg 83%
    22:00 +27°C° 0.2 mm 2 mps 760 mmHg 84%
    23:00 +27°C° 0.2 mm 1 mps 760 mmHg 85%

    24 July, Wednesday

    Time Temperature Precipitation Wind Pressure Humidity
    00:00 +26°C° 0.2 mm 1 mps 760 mmHg 87%
    01:00 +26°C° 1.5 mm 2 mps 760 mmHg 88%
    02:00 +26°C° 1.5 mm 2 mps 760 mmHg 89%
    03:00 +25°C° 1.5 mm 2 mps 760 mmHg 90%
    04:00 +26°C° 0 mm 3 mps 760 mmHg 90%
    05:00 +26°C° 0 mm 3 mps 760 mmHg 89%
    06:00 +26°C° 0 mm 4 mps 760 mmHg 88%
    07:00 +27°C° 0 mm 4 mps 761 mmHg 81%
    08:00 +28°C° 0 mm 4 mps 761 mmHg 75%
    09:00 +29°C° 0 mm 4 mps 761 mmHg 68%
    10:00 +30°C° 0 mm 4 mps 761 mmHg 61%
    11:00 +32°C° 0 mm 4 mps 761 mmHg 54%
    12:00 +33°C° 0 mm 4 mps 761 mmHg 47%
    13:00 +34°C° 0 mm 3 mps 761 mmHg 45%
    14:00 +34°C° 0 mm 3 mps 760 mmHg 43%
    15:00 +34°C° 0 mm 2 mps 760 mmHg 41%
    16:00 +34°C° 0 mm 2 mps 760 mmHg 45%
    17:00 +32°C° 0 mm 2 mps 760 mmHg 50%
    18:00 +31°C° 0 mm 3 mps 760 mmHg 54%
    19:00 +30°C° 0 mm 3 mps 760 mmHg 58%
    20:00 +29°C° 0 mm 4 mps 760 mmHg 61%
    21:00 +28°C° 0 mm 4 mps 761 mmHg 64%
    22:00 +27°C° 0 mm 4 mps 761 mmHg 64%
    23:00 +27°C° 0 mm 4 mps 760 mmHg 65%

    25 July, Thursday

    Time Temperature Precipitation Wind Pressure Humidity
    00:00 +26°C° 0 mm 4 mps 760 mmHg 65%
    01:00 +26°C° 0 mm 4 mps 760 mmHg 67%
    02:00 +25°C° 0 mm 4 mps 761 mmHg 68%
    03:00 +25°C° 0 mm 4 mps 761 mmHg 70%
    04:00 +25°C° 0 mm 4 mps 761 mmHg 71%
    05:00 +25°C° 0 mm 4 mps 761 mmHg 71%
    06:00 +23°C° 0 mm 4 mps 762 mmHg 72%
    07:00 +26°C° 0 mm 4 mps 762 mmHg 67%
    08:00 +28°C° 0 mm 4 mps 762 mmHg 62%
    09:00 +30°C° 0 mm 3 mps 762 mmHg 57%
    10:00 +31°C° 0 mm 3 mps 762 mmHg 50%
    11:00 +33°C° 0 mm 3 mps 762 mmHg 43%
    12:00 +34°C° 0 mm 2 mps 762 mmHg 37%
    13:00 +34°C° 0 mm 2 mps 762 mmHg 35%
    14:00 +35°C° 0 mm 2 mps 761 mmHg 34%
    15:00 +35°C° 0 mm 2 mps 761 mmHg 32%
    16:00 +33°C° 0 mm 1 mps 761 mmHg 37%
    17:00 +32°C° 0 mm 1 mps 761 mmHg 43%
    18:00 +31°C° 0 mm 1 mps 761 mmHg 48%
    19:00 +30°C° 0 mm 1 mps 762 mmHg 52%
    20:00 +28°C° 0 mm 1 mps 762 mmHg 57%
    21:00 +27°C° 0 mm 1 mps 762 mmHg 62%
    22:00 +27°C° 0 mm 1 mps 762 mmHg 65%
    23:00 +27°C° 0 mm 1 mps 762 mmHg 68%
    Show more